Location: Monrovia
(34.7865°N, 86.7139°W)
Time: 00:51:11
(UTC+00:00)

Cosmos 2016 Rocket - Pass Details

Date: 14 July 2020
Orbit: 948 x 999 km, 83.0° (Epoch: 12 August)

Event Time Altitude Azimuth Distance (km) Brightness Sun altitude
Exits shadow 07:07:36 58° 94° (E) 1,112 4.2 -30.9°
Maximum altitude 07:07:38 58° 92° (E) 1,112 4.2 -30.9°
Drops below altitude 10° 07:13:41 10° 15° (NNE) 2,713 7.2 -30.4°
Sets 07:16:15 0° 12° (NNE) 3,671 8.1 -30.2°
